This is the latest recevied weather packets stored in our database for station/object KJ4EWA. If no packets are shown the sender has not sent any weather packets the latest 10 day(s).
| Time | Temp. | Humidity | Pressure | Rain* | Wind** | Luminosity | Snow |
|---|---|---|---|---|---|---|---|
| 1778081206 | 25° C | 94% | 1019.1 hPa | 0 mm | - | 196 W/m² | - |
| 1778080904 | 25° C | 95% | 1019 hPa | 0 mm | - | 171 W/m² | - |
| 1778080603 | 25° C | 97% | 1019 hPa | 0 mm | - | 275 W/m² | - |
| 1778080299 | 24.44° C | 97% | 1019.1 hPa | 0 mm | - | 111 W/m² | - |
| 1778079996 | 24.44° C | 96% | 1018.9 hPa | 0 mm | - | 120 W/m² | - |
| 1778079693 | 24.44° C | 96% | 1018.7 hPa | 0 mm | - | 108 W/m² | - |
| 1778079390 | 24.44° C | 96% | 1018.9 hPa | 0 mm | - | 60 W/m² | - |
| 1778079086 | 24.44° C | 96% | 1018.7 hPa | 0 mm | - | 55 W/m² | - |
| 1778078784 | 24.44° C | 95% | 1018.8 hPa | 0 mm | - | 73 W/m² | - |
| 1778078480 | 24.44° C | 96% | 1018.8 hPa | 0 mm | - | 73 W/m² | - |
| 1778078178 | 24.44° C | 96% | 1018.7 hPa | 0 mm | - | 106 W/m² | - |
| 1778077876 | 24.44° C | 96% | 1018.8 hPa | 0 mm | - | 66 W/m² | - |
| 1778077574 | 24.44° C | 96% | 1018.7 hPa | 0 mm | - | 100 W/m² | - |
| 1778077272 | 24.44° C | 96% | 1018.8 hPa | 0 mm | - | 94 W/m² | - |
| 1778076969 | 24.44° C | 96% | 1018.5 hPa | 0 mm | - | 79 W/m² | - |
| 1778076668 | 24.44° C | 96% | 1018.7 hPa | 0 mm | - | 79 W/m² | - |
| 1778076365 | 24.44° C | 96% | 1018.6 hPa | 0 mm | - | 95 W/m² | - |
| 1778076062 | 24.44° C | 95% | 1018.5 hPa | 0 mm | - | 92 W/m² | - |
| 1778075759 | 24.44° C | 96% | 1018.3 hPa | 0 mm | - | 93 W/m² | - |
| 1778075455 | 24.44° C | 96% | 1018.5 hPa | 0 mm | - | 89 W/m² | - |
| 1778075151 | 24.44° C | 96% | 1018.1 hPa | 0 mm | - | 65 W/m² | - |
| 1778074847 | 24.44° C | 96% | 1018.6 hPa | 0 mm | - | 82 W/m² | - |
| 1778074545 | 24.44° C | 96% | 1018.4 hPa | 0 mm | - | 69 W/m² | - |
| 1778074242 | 24.44° C | 95% | 1018.3 hPa | 0 mm | - | 76 W/m² | - |
| 1778073939 | 24.44° C | 95% | 1018.4 hPa | 0 mm | - | 120 W/m² | - |
* Rain latest hour (hover to see other rain measurements)
** Current wind speed in m/s (hover to see current wind gust speed)